| time (UTC) | temp C | wind direction | speed KPH | gust KPH | rain 1hr cm | rain 24hr cm | rain mn cm | humidity % | barometer mb |
| 20260503053027 | 7 | 240 | 4.8 | 4.8 | 0.00 | 0.00 | 0.00 | 10 | 1013.2 |
| 20260503052523 | 7 | 186 | 1.6 | 1.6 | 0.00 | 0.00 | 0.00 | 10 | 1013.4 |
| 20260503052019 | 7 | 181 | 1.6 | 3.2 | 0.00 | 0.00 | 0.00 | 10 | 1013.4 |
| 20260503051515 | 8 | 181 | 0.0 | 1.6 | 0.00 | 0.00 | 0.00 | 10 | 1013.3 |
| 20260503051013 | 8 | 208 | 3.2 | 3.2 | 0.00 | 0.00 | 0.00 | 10 | 1013.3 |
| 20260503050508 | 8 | 212 | 3.2 | 3.2 | 0.00 | 0.00 | 0.00 | 10 | 1013.4 |
| 20260503050006 | 8 | 192 | 3.2 | 4.8 | 0.00 | 0.00 | 0.00 | 10 | 1013.3 |
| 20260503045503 | 9 | 181 | 0.0 | 0.0 | 0.00 | 0.00 | 0.00 | 10 | 1013.1 |
| 20260503045000 | 9 | 205 | 1.6 | 3.2 | 0.00 | 0.00 | 0.00 | 10 | 1013.1 |
| 20260503044457 | 10 | 178 | 3.2 | 3.2 | 0.00 | 0.00 | 0.00 | 10 | 1013.1 |
| 20260503043954 | 11 | 197 | 0.0 | 0.0 | 0.00 | 0.00 | 0.00 | 10 | 1013.3 |
| 20260503043450 | 11 | 155 | 3.2 | 4.8 | 0.00 | 0.00 | 0.00 | 10 | 1013.2 |
| 20260503042947 | 11 | 184 | 0.0 | 1.6 | 0.00 | 0.00 | 0.00 | 10 | 1013.0 |
| 20260503042444 | 11 | 177 | 3.2 | 3.2 | 0.00 | 0.00 | 0.00 | 10 | 1013.1 |
| 20260503041941 | 11 | 198 | 1.6 | 3.2 | 0.00 | 0.00 | 0.00 | 10 | 1013.2 |
| 20260503041437 | 11 | 203 | 1.6 | 1.6 | 0.00 | 0.00 | 0.00 | 10 | 1013.1 |
| 20260503040935 | 11 | 176 | 0.0 | 0.0 | 0.00 | 0.00 | 0.00 | 10 | 1012.8 |
| 20260503040432 | 11 | 191 | 1.6 | 1.6 | 0.00 | 0.00 | 0.00 | 10 | 1013.0 |
| 20260503035929 | 12 | 207 | 1.6 | 3.2 | 0.00 | 0.00 | 0.00 | 10 | 1012.8 |
| 20260503035426 | 12 | 179 | 1.6 | 1.6 | 0.00 | 0.00 | 0.00 | 10 | 1012.8 |
| 20260503034924 | 12 | 175 | 1.6 | 1.6 | 0.00 | 0.00 | 0.00 | 10 | 1012.8 |
| 20260503034421 | 12 | 181 | 0.0 | 0.0 | 0.00 | 0.00 | 0.00 | 10 | 1012.6 |
| 20260503033918 | 12 | 207 | 3.2 | 3.2 | 0.00 | 0.00 | 0.00 | 10 | 1012.6 |
| 20260503033415 | 12 | 181 | 1.6 | 3.2 | 0.00 | 0.00 | 0.00 | 10 | 1012.5 |
| 20260503032913 | 13 | 182 | 0.0 | 0.0 | 0.00 | 0.00 | 0.00 | 10 | 1012.5 |
| 20260503032412 | 13 | 231 | 4.8 | 4.8 | 0.00 | 0.00 | 0.00 | 10 | 1012.3 |
| 20260503031909 | 13 | 220 | 3.2 | 3.2 | 0.00 | 0.00 | 0.00 | 10 | 1012.6 |
| 20260503031407 | 14 | 217 | 4.8 | 4.8 | 0.00 | 0.00 | 0.00 | 10 | 1012.2 |
| 20260503030903 | 14 | 205 | 3.2 | 3.2 | 0.00 | 0.00 | 0.00 | 10 | 1012.2 |
| 20260503030359 | 15 | 202 | 4.8 | 4.8 | 0.00 | 0.00 | 0.00 | 10 | 1012.4 |
| 20260503025855 | 15 | 199 | 4.8 | 4.8 | 0.00 | 0.00 | 0.00 | 10 | 1012.2 |
| 20260503025353 | 15 | 225 | 8.0 | 9.7 | 0.00 | 0.00 | 0.00 | 10 | 1012.1 |
| 20260503024850 | 16 | 213 | 9.7 | 11.3 | 0.00 | 0.00 | 0.00 | 10 | 1011.9 |
| 20260503024347 | 16 | 212 | 11.3 | 12.9 | 0.00 | 0.00 | 0.00 | 10 | 1011.9 |
| 20260503023844 | 17 | 214 | 11.3 | 12.9 | 0.00 | 0.00 | 0.00 | 10 | 1012.2 |
| 20260503023341 | 17 | 225 | 12.9 | 14.5 | 0.00 | 0.00 | 0.00 | 10 | 1011.9 |
| 20260503022837 | 17 | 233 | 9.7 | 11.3 | 0.00 | 0.00 | 0.00 | 10 | 1012.2 |
| 20260503022332 | 17 | 230 | 8.0 | 11.3 | 0.00 | 0.00 | 0.00 | 10 | 1012.1 |
| 20260503021829 | 17 | 239 | 11.3 | 16.1 | 0.00 | 0.00 | 0.00 | 10 | 1012.1 |
| 20260503021325 | 17 | 249 | 11.3 | 12.9 | 0.00 | 0.00 | 0.00 | 10 | 1011.9 |
| 20260503020822 | 18 | 201 | 6.4 | 8.0 | 0.00 | 0.00 | 0.00 | 10 | 1012.1 |
| 20260503020321 | 18 | 226 | 17.7 | 20.9 | 0.00 | 0.00 | 0.00 | 10 | 1012.2 |
| 20260503015817 | 19 | 231 | 12.9 | 14.5 | 0.00 | 0.00 | 0.00 | 10 | 1011.9 |
| 20260503015314 | 19 | 219 | 9.7 | 12.9 | 0.00 | 0.00 | 0.00 | 10 | 1012.3 |
| 20260503014809 | 19 | 208 | 4.8 | 9.7 | 0.00 | 0.00 | 0.00 | 10 | 1012.3 |
| 20260503014307 | 18 | 220 | 8.0 | 9.7 | 0.00 | 0.00 | 0.00 | 10 | 1012.1 |
| 20260503013804 | 18 | 233 | 12.9 | 12.9 | 0.00 | 0.00 | 0.00 | 10 | 1012.3 |
| 20260503013302 | 18 | 213 | 16.1 | 20.9 | 0.00 | 0.00 | 0.00 | 10 | 1012.4 |
| 20260503012759 | 19 | 209 | 9.7 | 12.9 | 0.00 | 0.00 | 0.00 | 10 | 1012.4 |
| 20260503012256 | 19 | 228 | 14.5 | 16.1 | 0.00 | 0.00 | 0.00 | 10 | 1012.5 |
| 20260503011753 | 19 | 226 | 17.7 | 20.9 | 0.00 | 0.00 | 0.00 | 10 | 1012.4 |
| 20260503011250 | 19 | 196 | 6.4 | 9.7 | 0.00 | 0.00 | 0.00 | 10 | 1012.3 |
| 20260503010746 | 19 | 264 | 11.3 | 14.5 | 0.00 | 0.00 | 0.00 | 10 | 1012.3 |
| 20260503010243 | 19 | 236 | 22.5 | 27.4 | 0.00 | 0.00 | 0.00 | 10 | 1012.3 |
| 20260503005740 | 19 | 213 | 11.3 | 12.9 | 0.00 | 0.00 | 0.00 | 10 | 1012.4 |
| 20260503005237 | 20 | 204 | 11.3 | 14.5 | 0.00 | 0.00 | 0.00 | 10 | 1012.4 |
| 20260503004733 | 20 | 246 | 16.1 | 20.9 | 0.00 | 0.00 | 0.00 | 10 | 1012.5 |
| 20260503004232 | 20 | 236 | 17.7 | 20.9 | 0.00 | 0.00 | 0.00 | 10 | 1012.4 |
| 20260503003729 | 20 | 213 | 14.5 | 16.1 | 0.00 | 0.00 | 0.00 | 10 | 1012.4 |
| 20260503003226 | 20 | 239 | 14.5 | 20.9 | 0.00 | 0.00 | 0.00 | 10 | 1012.3 |
| 20260503002722 | 20 | 258 | 12.9 | 16.1 | 0.00 | 0.00 | 0.00 | 10 | 1012.4 |
| 20260503002219 | 20 | 260 | 14.5 | 20.9 | 0.00 | 0.00 | 0.00 | 10 | 1012.6 |
| 20260503001715 | 20 | 217 | 14.5 | 20.9 | 0.00 | 0.00 | 0.00 | 10 | 1012.6 |
| 20260503001212 | 19 | 224 | 14.5 | 16.1 | 0.00 | 0.00 | 0.00 | 10 | 1012.5 |
| 20260503000710 | 17 | 171 | 8.0 | 14.5 | 0.00 | 0.00 | 0.00 | 10 | 1012.5 |
| 20260503000207 | 18 | 151 | 12.9 | 16.1 | 0.00 | 0.00 | 0.00 | 10 | 1012.6 |
| 20260502235704 | 18 | 177 | 4.8 | 4.8 | 0.00 | 0.00 | 0.00 | 10 | 1012.6 |
| 20260502235202 | 18 | 210 | 11.3 | 14.5 | 0.00 | 0.00 | 0.00 | 10 | 1012.7 |
| 20260502234657 | 19 | 139 | 16.1 | 22.5 | 0.00 | 0.00 | 0.00 | 10 | 1012.7 |
| 20260502234155 | 20 | 167 | 4.8 | 8.0 | 0.00 | 0.00 | 0.00 | 10 | 1012.7 |
| 20260502233651 | 20 | 209 | 6.4 | 9.7 | 0.00 | 0.00 | 0.00 | 10 | 1012.8 |
| 20260502233148 | 20 | 267 | 11.3 | 12.9 | 0.00 | 0.00 | 0.00 | 10 | 1013.0 |
| 20260502232644 | 19 | 160 | 6.4 | 9.7 | 0.00 | 0.00 | 0.00 | 10 | 1013.1 |
| 20260502232141 | 19 | 178 | 8.0 | 9.7 | 0.00 | 0.00 | 0.00 | 10 | 1013.2 |
| 20260502231637 | 18 | 189 | 4.8 | 8.0 | 0.00 | 0.00 | 0.00 | 10 | 1013.1 |
| 20260502231136 | 19 | 181 | 11.3 | 12.9 | 0.00 | 0.00 | 0.00 | 10 | 1013.3 |
| 20260502230634 | 19 | 201 | 9.7 | 12.9 | 0.00 | 0.00 | 0.00 | 10 | 1013.2 |
| 20260502230132 | 20 | 241 | 16.1 | 17.7 | 0.00 | 0.00 | 0.00 | 10 | 1013.2 |
| 20260502225627 | 20 | 192 | 4.8 | 9.7 | 0.00 | 0.00 | 0.00 | 10 | 1013.2 |
| 20260502225125 | 19 | 266 | 14.5 | 22.5 | 0.00 | 0.00 | 0.00 | 10 | 1013.5 |
| 20260502224621 | 20 | 196 | 8.0 | 9.7 | 0.00 | 0.00 | 0.00 | 10 | 1013.4 |
| 20260502224117 | 20 | 180 | 11.3 | 14.5 | 0.00 | 0.00 | 0.00 | 10 | 1013.4 |
| 20260502223615 | 20 | 205 | 9.7 | 12.9 | 0.00 | 0.00 | 0.00 | 10 | 1013.6 |
| 20260502223114 | 19 | 203 | 9.7 | 12.9 | 0.00 | 0.00 | 0.00 | 10 | 1013.9 |
| 20260502222611 | 20 | 191 | 9.7 | 12.9 | 0.00 | 0.00 | 0.00 | 10 | 1013.9 |
| 20260502222107 | 20 | 147 | 6.4 | 9.7 | 0.00 | 0.00 | 0.00 | 10 | 1013.7 |
| 20260502221603 | 20 | 179 | 9.7 | 17.7 | 0.00 | 0.00 | 0.00 | 10 | 1013.9 |
| 20260502221100 | 19 | 146 | 4.8 | 4.8 | 0.00 | 0.00 | 0.00 | 10 | 1014.1 |
| 20260502220555 | 20 | 181 | 8.0 | 11.3 | 0.00 | 0.00 | 0.00 | 10 | 1014.4 |
| 20260502220053 | 20 | 162 | 11.3 | 14.5 | 0.00 | 0.00 | 0.00 | 10 | 1014.3 |
| 20260502215550 | 19 | 206 | 11.3 | 14.5 | 0.00 | 0.00 | 0.00 | 10 | 1014.2 |
| 20260502215046 | 20 | 178 | 12.9 | 20.9 | 0.00 | 0.00 | 0.00 | 10 | 1014.2 |
| 20260502214543 | 19 | 199 | 8.0 | 11.3 | 0.00 | 0.00 | 0.00 | 10 | 1014.2 |
| 20260502214041 | 19 | 193 | 8.0 | 9.7 | 0.00 | 0.00 | 0.00 | 10 | 1014.5 |
| 20260502213538 | 19 | 173 | 1.6 | 3.2 | 0.00 | 0.00 | 0.00 | 10 | 1014.3 |
| 20260502213036 | 19 | 213 | 1.6 | 4.8 | 0.00 | 0.00 | 0.00 | 10 | 1014.6 |
| 20260502212534 | 19 | 165 | 1.6 | 1.6 | 0.00 | 0.00 | 0.00 | 10 | 1014.5 |
| 20260502212032 | 18 | 179 | 3.2 | 3.2 | 0.00 | 0.00 | 0.00 | 10 | 1014.4 |
| 20260502211527 | 19 | 170 | 8.0 | 11.3 | 0.00 | 0.00 | 0.00 | 10 | 1014.6 |
| 20260502211024 | 18 | 165 | 6.4 | 9.7 | 0.00 | 0.00 | 0.00 | 10 | 1014.6 |
| 20260502210521 | 18 | 163 | 4.8 | 8.0 | 0.00 | 0.00 | 0.00 | 10 | 1014.8 |
| 20260502210018 | 18 | 209 | 6.4 | 8.0 | 0.00 | 0.00 | 0.00 | 10 | 1015.0 |
| 20260502205515 | 18 | 190 | 4.8 | 8.0 | 0.00 | 0.00 | 0.00 | 10 | 1015.2 |
| 20260502205012 | 18 | 198 | 6.4 | 8.0 | 0.00 | 0.00 | 0.00 | 10 | 1015.2 |
| 20260502204509 | 18 | 193 | 8.0 | 12.9 | 0.00 | 0.00 | 0.00 | 10 | 1015.3 |
| 20260502204007 | 18 | 181 | 9.7 | 14.5 | 0.00 | 0.00 | 0.00 | 10 | 1015.4 |
| 20260502203503 | 17 | 174 | 9.7 | 14.5 | 0.00 | 0.00 | 0.00 | 10 | 1015.4 |
| 20260502203000 | 17 | 194 | 8.0 | 11.3 | 0.00 | 0.00 | 0.00 | 10 | 1015.3 |
| 20260502202456 | 18 | 176 | 4.8 | 4.8 | 0.00 | 0.00 | 0.00 | 10 | 1015.5 |
| 20260502201955 | 18 | 181 | 6.4 | 9.7 | 0.00 | 0.00 | 0.00 | 10 | 1015.7 |
| 20260502201450 | 17 | 180 | 4.8 | 8.0 | 0.00 | 0.00 | 0.00 | 10 | 1015.9 |
| 20260502200947 | 18 | 161 | 9.7 | 11.3 | 0.00 | 0.00 | 0.00 | 10 | 1015.8 |
| 20260502200443 | 18 | 176 | 6.4 | 8.0 | 0.00 | 0.00 | 0.00 | 10 | 1015.9 |
| 20260502195941 | 17 | 207 | 8.0 | 9.7 | 0.00 | 0.00 | 0.00 | 10 | 1016.1 |
| 20260502195438 | 17 | 177 | 0.0 | 0.0 | 0.00 | 0.00 | 0.00 | 10 | 1016.0 |
| 20260502194934 | 17 | 196 | 4.8 | 4.8 | 0.00 | 0.00 | 0.00 | 10 | 1016.2 |
| 20260502194431 | 17 | 173 | 3.2 | 8.0 | 0.00 | 0.00 | 0.00 | 10 | 1016.2 |
| 20260502193927 | 17 | 197 | 6.4 | 8.0 | 0.00 | 0.00 | 0.00 | 10 | 1016.2 |
| 20260502193424 | 17 | 163 | 6.4 | 8.0 | 0.00 | 0.00 | 0.00 | 10 | 1016.2 |
| 20260502192919 | 16 | 165 | 3.2 | 9.7 | 0.00 | 0.00 | 0.00 | 10 | 1016.4 |
| 20260502192417 | 16 | 226 | 8.0 | 11.3 | 0.00 | 0.00 | 0.00 | 10 | 1016.6 |
| 20260502191914 | 17 | 193 | 4.8 | 9.7 | 0.00 | 0.00 | 0.00 | 10 | 1016.7 |
| 20260502191412 | 16 | 178 | 0.0 | 0.0 | 0.00 | 0.00 | 0.00 | 10 | 1016.9 |
| 20260502190909 | 15 | 162 | 4.8 | 8.0 | 0.00 | 0.00 | 0.00 | 10 | 1016.9 |
| 20260502190406 | 16 | 198 | 1.6 | 1.6 | 0.00 | 0.00 | 0.00 | 10 | 1016.9 |
| 20260502185902 | 16 | 198 | 6.4 | 8.0 | 0.00 | 0.00 | 0.00 | 10 | 1017.0 |
| 20260502185357 | 16 | 183 | 1.6 | 3.2 | 0.00 | 0.00 | 0.00 | 10 | 1017.1 |
| 20260502184855 | 16 | 112 | 4.8 | 8.0 | 0.00 | 0.00 | 0.00 | 10 | 1017.0 |
| 20260502184350 | 15 | 113 | 4.8 | 4.8 | 0.00 | 0.00 | 0.00 | 10 | 1017.0 |
| 20260502183847 | 16 | 174 | 1.6 | 1.6 | 0.00 | 0.00 | 0.00 | 10 | 1017.2 |
| 20260502183343 | 16 | 135 | 4.8 | 8.0 | 0.00 | 0.00 | 0.00 | 10 | 1017.2 |
| 20260502182838 | 16 | 193 | 4.8 | 4.8 | 0.00 | 0.00 | 0.00 | 10 | 1017.2 |
| 20260502182334 | 16 | 183 | 8.0 | 9.7 | 0.00 | 0.00 | 0.00 | 10 | 1017.5 |
| 20260502181831 | 15 | 172 | 0.0 | 0.0 | 0.00 | 0.00 | 0.00 | 10 | 1017.6 |
| 20260502181330 | 15 | 137 | 0.0 | 1.6 | 0.00 | 0.00 | 0.00 | 10 | 1017.7 |
| 20260502180827 | 15 | 177 | 3.2 | 4.8 | 0.00 | 0.00 | 0.00 | 10 | 1017.6 |
| 20260502180324 | 15 | 172 | 4.8 | 8.0 | 0.00 | 0.00 | 0.00 | 10 | 1017.8 |
| 20260502170243 | 14 | 140 | 1.6 | 1.6 | 0.00 | 0.00 | 0.00 | 10 | 1018.5 |
| 20260502164231 | 13 | 161 | 8.0 | 11.3 | 0.00 | 0.00 | 0.00 | 10 | 1018.6 |
| 20260502163726 | 15 | 174 | 0.0 | 0.0 | 0.00 | 0.00 | 0.00 | 10 | 1018.8 |
| 20260502163223 | 13 | 171 | 0.0 | 0.0 | 0.00 | 0.00 | 0.00 | 10 | 1018.8 |
| 20260502162720 | 13 | 167 | 0.0 | 0.0 | 0.00 | 0.00 | 0.00 | 10 | 1019.0 |
| 20260502162217 | 12 | 162 | 1.6 | 1.6 | 0.00 | 0.00 | 0.00 | 10 | 1018.9 |
| 20260502161714 | 12 | 124 | 3.2 | 3.2 | 0.00 | 0.00 | 0.00 | 10 | 1019.0 |
| 20260502161210 | 11 | 159 | 1.6 | 1.6 | 0.00 | 0.00 | 0.00 | 10 | 1018.9 |
| 20260502160709 | 12 | 170 | 1.6 | 1.6 | 0.00 | 0.00 | 0.00 | 10 | 1019.1 |
| 20260502160208 | 10 | 179 | 0.0 | 1.6 | 0.00 | 0.00 | 0.00 | 10 | 1019.1 |
| 20260502152126 | 8 | 183 | 4.8 | 4.8 | 0.00 | 0.00 | 0.00 | 10 | 1019.7 |
| 20260502151624 | 8 | 178 | 4.8 | 4.8 | 0.00 | 0.00 | 0.00 | 10 | 1019.7 |
| 20260502151121 | 7 | 172 | 4.8 | 8.0 | 0.00 | 0.00 | 0.00 | 10 | 1019.6 |
| 20260502150619 | 7 | 179 | 4.8 | 4.8 | 0.00 | 0.00 | 0.00 | 10 | 1019.5 |
| 20260502150114 | 8 | 197 | 4.8 | 8.0 | 0.00 | 0.00 | 0.00 | 10 | 1019.5 |
| 20260502130503 | 3 | 181 | 1.6 | 1.6 | 0.00 | 0.00 | 0.00 | 10 | 1019.5 |
| 20260502123446 | 3 | 195 | 1.6 | 1.6 | 0.00 | 0.00 | 0.00 | 10 | 1019.4 |
| 20260502122943 | 3 | 179 | 0.0 | 0.0 | 0.00 | 0.00 | 0.00 | 10 | 1019.4 |
| 20260502122439 | 4 | 176 | 1.6 | 1.6 | 0.00 | 0.00 | 0.00 | 10 | 1019.1 |
| 20260502121937 | 4 | 207 | 3.2 | 3.2 | 0.00 | 0.00 | 0.00 | 10 | 1019.3 |
| 20260502121434 | 4 | 233 | 4.8 | 4.8 | 0.00 | 0.00 | 0.00 | 10 | 1019.3 |
| 20260502120932 | 4 | 226 | 4.8 | 4.8 | 0.00 | 0.00 | 0.00 | 10 | 1019.5 |
| 20260502120428 | 4 | 233 | 4.8 | 4.8 | 0.00 | 0.00 | 0.00 | 10 | 1019.4 |
| 20260502115925 | 4 | 178 | 0.0 | 0.0 | 0.00 | 0.00 | 0.00 | 10 | 1019.3 |
| 20260502115422 | 5 | 190 | 0.0 | 0.0 | 0.00 | 0.00 | 0.00 | 10 | 1019.5 |
| 20260502114918 | 5 | 179 | 0.0 | 0.0 | 0.00 | 0.00 | 0.00 | 10 | 1019.4 |
| 20260502114415 | 5 | 199 | 0.0 | 0.0 | 0.00 | 0.00 | 0.00 | 10 | 1019.3 |
| 20260502113912 | 5 | 185 | 0.0 | 0.0 | 0.00 | 0.00 | 0.00 | 10 | 1019.5 |
| 20260502113410 | 5 | 179 | 0.0 | 0.0 | 0.00 | 0.00 | 0.00 | 10 | 1019.4 |
| 20260502112909 | 5 | 186 | 1.6 | 1.6 | 0.00 | 0.00 | 0.00 | 10 | 1019.4 |
| 20260502112405 | 5 | 179 | 0.0 | 0.0 | 0.00 | 0.00 | 0.00 | 10 | 1019.5 |
| 20260502111903 | 5 | 179 | 0.0 | 0.0 | 0.00 | 0.00 | 0.00 | 10 | 1019.4 |
| 20260502111400 | 5 | 183 | 0.0 | 0.0 | 0.00 | 0.00 | 0.00 | 10 | 1019.5 |
| 20260502110857 | 5 | 189 | 1.6 | 1.6 | 0.00 | 0.00 | 0.00 | 10 | 1019.5 |
| 20260502110355 | 6 | 190 | 1.6 | 1.6 | 0.00 | 0.00 | 0.00 | 10 | 1019.6 |
| 20260502105852 | 6 | 205 | 3.2 | 3.2 | 0.00 | 0.00 | 0.00 | 10 | 1019.4 |
| 20260502105349 | 6 | 199 | 3.2 | 3.2 | 0.00 | 0.00 | 0.00 | 10 | 1019.3 |
| 20260502104847 | 5 | 190 | 0.0 | 1.6 | 0.00 | 0.00 | 0.00 | 10 | 1019.4 |
| 20260502104344 | 5 | 177 | 0.0 | 0.0 | 0.00 | 0.00 | 0.00 | 10 | 1019.6 |
| 20260502103841 | 6 | 197 | 1.6 | 1.6 | 0.00 | 0.00 | 0.00 | 10 | 1019.3 |
| 20260502103339 | 6 | 225 | 4.8 | 4.8 | 0.00 | 0.00 | 0.00 | 10 | 1019.5 |
| 20260502102836 | 6 | 208 | 3.2 | 3.2 | 0.00 | 0.00 | 0.00 | 10 | 1019.5 |
| 20260502102332 | 6 | 189 | 1.6 | 1.6 | 0.00 | 0.00 | 0.00 | 10 | 1019.5 |
| 20260502101830 | 6 | 182 | 0.0 | 0.0 | 0.00 | 0.00 | 0.00 | 10 | 1019.6 |
| 20260502101328 | 5 | 183 | 0.0 | 0.0 | 0.00 | 0.00 | 0.00 | 10 | 1019.5 |
| 20260502100826 | 5 | 182 | 0.0 | 0.0 | 0.00 | 0.00 | 0.00 | 10 | 1019.4 |
| 20260502100325 | 5 | 180 | 0.0 | 0.0 | 0.00 | 0.00 | 0.00 | 10 | 1019.6 |
| 20260502091258 | 6 | 203 | 3.2 | 3.2 | 0.00 | 0.00 | 0.00 | 10 | 1019.1 |
| 20260502090756 | 6 | 192 | 1.6 | 1.6 | 0.00 | 0.00 | 0.00 | 10 | 1019.3 |
| 20260502090252 | 6 | 182 | 0.0 | 1.6 | 0.00 | 0.00 | 0.00 | 10 | 1019.4 |
| 20260502071147 | 7 | 183 | 0.0 | 0.0 | 0.00 | 0.00 | 0.00 | 10 | 1018.9 |
| 20260502070646 | 8 | 185 | 0.0 | 1.6 | 0.00 | 0.00 | 0.00 | 10 | 1018.9 |
| 20260502070143 | 8 | 186 | 1.6 | 1.6 | 0.00 | 0.00 | 0.00 | 10 | 1018.8 |
| 20260502065641 | 8 | 181 | 0.0 | 0.0 | 0.00 | 0.00 | 0.00 | 10 | 1018.9 |
| 20260502065138 | 8 | 153 | 1.6 | 1.6 | 0.00 | 0.00 | 0.00 | 10 | 1018.7 |
| 20260502064637 | 8 | 151 | 3.2 | 3.2 | 0.00 | 0.00 | 0.00 | 10 | 1018.9 |
| 20260502064134 | 8 | 174 | 0.0 | 0.0 | 0.00 | 0.00 | 0.00 | 10 | 1019.0 |
| 20260502063632 | 8 | 181 | 0.0 | 0.0 | 0.00 | 0.00 | 0.00 | 10 | 1018.8 |
| 20260502063129 | 8 | 187 | 1.6 | 1.6 | 0.00 | 0.00 | 0.00 | 10 | 1018.9 |
| 20260502062626 | 8 | 206 | 3.2 | 3.2 | 0.00 | 0.00 | 0.00 | 10 | 1018.7 |
| 20260502062124 | 8 | 186 | 1.6 | 1.6 | 0.00 | 0.00 | 0.00 | 10 | 1018.9 |
| 20260502061622 | 8 | 200 | 1.6 | 1.6 | 0.00 | 0.00 | 0.00 | 10 | 1018.8 |
| 20260502061119 | 8 | 178 | 0.0 | 0.0 | 0.00 | 0.00 | 0.00 | 10 | 1018.7 |
| 20260502060619 | 8 | 189 | 0.0 | 1.6 | 0.00 | 0.00 | 0.00 | 10 | 1018.9 |
| 20260502060116 | 8 | 175 | 3.2 | 3.2 | 0.00 | 0.00 | 0.00 | 10 | 1018.8 |
| 20260502055614 | 8 | 176 | 1.6 | 1.6 | 0.00 | 0.00 | 0.00 | 10 | 1018.6 |
| 20260502055112 | 8 | 187 | 1.6 | 1.6 | 0.00 | 0.00 | 0.00 | 10 | 1018.8 |
| 20260502054611 | 8 | 190 | 3.2 | 3.2 | 0.00 | 0.00 | 0.00 | 10 | 1018.7 |
| 20260502054107 | 8 | 193 | 3.2 | 3.2 | 0.00 | 0.00 | 0.00 | 10 | 1018.5 |
| 20260502053604 | 9 | 190 | 1.6 | 1.6 | 0.00 | 0.00 | 0.00 | 10 | 1018.4 |